Time,TemperatureF,DewpointF,PressureIn,WindDirection,WindDirectionDegrees,WindSpeedMPH,WindSpeedGustMPH,Humidity,HourlyPrecipIn,Conditions,Clouds,dailyrainin,SoftwareType,DateUTC
2013-01-10 00:02:00,32.3,27.0,30.49,SSE,152,0.0,4.0,82,0.00,,,0.00,weatherlink.com 1.10,2013-01-10 06:02:00,
2013-01-10 00:17:00,32.5,28.0,30.49,SE,139,2.0,4.0,82,0.00,,,0.00,weatherlink.com 1.10,2013-01-10 06:17:00,
2013-01-10 00:33:00,32.7,28.0,30.48,SE,128,1.0,4.0,82,0.00,,,0.00,weatherlink.com 1.10,2013-01-10 06:33:00,
2013-01-10 00:48:00,33.1,28.0,30.47,ESE,114,3.0,4.0,80,0.00,,,0.00,weatherlink.com 1.10,2013-01-10 06:48:00,
2013-01-10 01:03:00,33.3,27.0,30.48,SE,134,3.0,3.0,78,0.00,,,0.00,weatherlink.com 1.10,2013-01-10 07:03:00,
2013-01-10 01:18:00,33.1,27.0,30.49,ESE,115,2.0,4.0,78,0.00,,,0.00,weatherlink.com 1.10,2013-01-10 07:18:00,
2013-01-10 01:33:00,32.8,27.0,30.48,SE,125,2.0,4.0,78,0.00,,,0.00,weatherlink.com 1.10,2013-01-10 07:33:00,
2013-01-10 01:48:00,32.8,27.0,30.48,ESE,118,2.0,4.0,78,0.00,,,0.00,weatherlink.com 1.10,2013-01-10 07:48:00,
2013-01-10 02:03:00,32.9,26.0,30.47,East,95,3.0,4.0,77,0.00,,,0.00,weatherlink.com 1.10,2013-01-10 08:03:00,
2013-01-10 02:18:00,33.2,26.0,30.46,ENE,75,1.0,3.0,76,0.00,,,0.00,weatherlink.com 1.10,2013-01-10 08:18:00,
2013-01-10 02:33:00,32.5,26.0,30.45,ENE,67,3.0,3.0,77,0.00,,,0.00,weatherlink.com 1.10,2013-01-10 08:33:00,
2013-01-10 02:48:00,33.2,27.0,30.46,ENE,78,2.0,2.0,77,0.00,,,0.00,weatherlink.com 1.10,2013-01-10 08:48:00,
2013-01-10 03:03:00,33.7,27.0,30.46,East,98,3.0,3.0,76,0.00,,,0.00,weatherlink.com 1.10,2013-01-10 09:03:00,
2013-01-10 03:18:00,33.2,27.0,30.45,East,82,3.0,5.0,77,0.00,,,0.00,weatherlink.com 1.10,2013-01-10 09:18:00,
2013-01-10 03:33:00,32.7,26.0,30.45,East,101,3.0,5.0,77,0.00,,,0.00,weatherlink.com 1.10,2013-01-10 09:33:00,
2013-01-10 03:48:00,31.8,26.0,30.45,ESE,107,2.0,5.0,79,0.00,,,0.00,weatherlink.com 1.10,2013-01-10 09:48:00,
2013-01-10 04:03:00,31.5,26.0,30.45,ESE,108,4.0,4.0,81,0.00,,,0.00,weatherlink.com 1.10,2013-01-10 10:03:00,
2013-01-10 04:18:00,31.1,26.0,30.45,East,85,3.0,4.0,81,0.00,,,0.00,weatherlink.com 1.10,2013-01-10 10:18:00,
2013-01-10 04:33:00,30.9,26.0,30.45,East,97,6.0,6.0,82,0.00,,,0.00,weatherlink.com 1.10,2013-01-10 10:33:00,
2013-01-10 04:48:00,30.6,26.0,30.44,East,83,5.0,6.0,83,0.00,,,0.00,weatherlink.com 1.10,2013-01-10 10:48:00,
2013-01-10 05:03:00,30.5,26.0,30.43,East,93,6.0,6.0,82,0.00,,,0.00,weatherlink.com 1.10,2013-01-10 11:03:00,
2013-01-10 05:18:00,30.2,26.0,30.43,ESE,106,6.0,6.0,83,0.00,,,0.00,weatherlink.com 1.10,2013-01-10 11:18:00,
2013-01-10 05:33:00,30.0,25.0,30.43,East,87,3.0,5.0,83,0.00,,,0.00,weatherlink.com 1.10,2013-01-10 11:33:00,
2013-01-10 05:48:00,30.1,26.0,30.42,East,98,3.0,7.0,83,0.00,,,0.00,weatherlink.com 1.10,2013-01-10 11:48:00,
2013-01-10 06:03:00,30.0,25.0,30.42,East,83,4.0,7.0,82,0.00,,,0.00,weatherlink.com 1.10,2013-01-10 12:03:00,
2013-01-10 06:18:00,30.1,25.0,30.42,East,82,5.0,8.0,82,0.00,,,0.00,weatherlink.com 1.10,2013-01-10 12:18:00,
2013-01-10 06:33:00,30.4,25.0,30.42,East,99,5.0,8.0,81,0.00,,,0.00,weatherlink.com 1.10,2013-01-10 12:33:00,
2013-01-10 06:48:00,30.9,25.0,30.41,East,83,3.0,9.0,79,0.00,,,0.00,weatherlink.com 1.10,2013-01-10 12:48:00,
2013-01-10 07:03:00,31.1,25.0,30.41,East,80,5.0,8.0,79,0.00,,,0.00,weatherlink.com 1.10,2013-01-10 13:03:00,
2013-01-10 07:18:00,31.6,25.0,30.41,East,95,5.0,7.0,78,0.00,,,0.00,weatherlink.com 1.10,2013-01-10 13:18:00,
2013-01-10 07:33:00,31.4,26.0,30.41,ENE,61,7.0,9.0,79,0.00,,,0.00,weatherlink.com 1.10,2013-01-10 13:33:00,
2013-01-10 07:48:00,31.4,26.0,30.40,East,87,8.0,9.0,79,0.00,,,0.00,weatherlink.com 1.10,2013-01-10 13:48:00,
2013-01-10 08:04:00,31.6,25.0,30.39,East,90,6.0,10.0,78,0.00,,,0.00,weatherlink.com 1.10,2013-01-10 14:04:00,
2013-01-10 08:19:00,31.7,26.0,30.39,East,93,4.0,11.0,78,0.00,,,0.00,weatherlink.com 1.10,2013-01-10 14:19:00,
2013-01-10 08:34:00,31.6,26.0,30.38,East,94,6.0,9.0,79,0.00,,,0.00,weatherlink.com 1.10,2013-01-10 14:34:00,
2013-01-10 08:49:00,31.6,26.0,30.38,NE,56,4.0,10.0,80,0.00,,,0.00,weatherlink.com 1.10,2013-01-10 14:49:00,
2013-01-10 09:04:00,31.9,26.0,30.37,ENE,75,6.0,11.0,79,0.00,,,0.00,weatherlink.com 1.10,2013-01-10 15:04:00,
2013-01-10 09:19:00,32.5,27.0,30.36,East,87,8.0,10.0,79,0.00,,,0.00,weatherlink.com 1.10,2013-01-10 15:19:00,
2013-01-10 09:34:00,32.8,27.0,30.35,East,89,5.0,13.0,79,0.00,,,0.00,weatherlink.com 1.10,2013-01-10 15:34:00,
2013-01-10 09:49:00,33.2,27.0,30.34,ENE,68,10.0,11.0,78,0.00,,,0.00,weatherlink.com 1.10,2013-01-10 15:49:00,
2013-01-10 10:04:00,33.9,28.0,30.33,East,84,5.0,12.0,78,0.00,,,0.00,weatherlink.com 1.10,2013-01-10 16:04:00,
2013-01-10 10:19:00,34.8,28.0,30.32,ESE,106,9.0,12.0,75,0.00,,,0.00,weatherlink.com 1.10,2013-01-10 16:19:00,
2013-01-10 10:34:00,35.2,28.0,30.30,East,87,2.0,13.0,75,0.00,,,0.00,weatherlink.com 1.10,2013-01-10 16:34:00,
2013-01-10 10:49:00,35.9,28.0,30.29,NNE,16,2.0,13.0,73,0.00,,,0.00,weatherlink.com 1.10,2013-01-10 16:49:00,
2013-01-10 11:04:00,37.1,28.0,30.28,East,82,5.0,13.0,70,0.00,,,0.00,weatherlink.com 1.10,2013-01-10 17:04:00,
2013-01-10 11:19:00,37.7,28.0,30.26,East,101,4.0,13.0,69,0.00,,,0.00,weatherlink.com 1.10,2013-01-10 17:19:00,
2013-01-10 11:49:00,38.3,28.0,30.23,East,99,13.0,17.0,67,0.00,,,0.00,weatherlink.com 1.10,2013-01-10 17:49:00,
2013-01-10 12:04:00,38.2,28.0,30.21,NE,37,5.0,15.0,67,0.00,,,0.00,weatherlink.com 1.10,2013-01-10 18:04:00,
2013-01-10 12:19:00,38.3,29.0,30.19,ENE,63,5.0,14.0,68,0.00,,,0.00,weatherlink.com 1.10,2013-01-10 18:19:00,
2013-01-10 12:35:00,38.1,29.0,30.17,East,93,12.0,16.0,69,0.00,,,0.00,weatherlink.com 1.10,2013-01-10 18:35:00,
2013-01-10 12:50:00,38.3,29.0,30.15,East,87,8.0,16.0,68,0.00,,,0.00,weatherlink.com 1.10,2013-01-10 18:50:00,
2013-01-10 13:05:00,38.5,29.0,30.15,East,97,10.0,15.0,69,0.00,,,0.00,weatherlink.com 1.10,2013-01-10 19:05:00,
2013-01-10 13:20:00,38.4,30.0,30.14,ENE,70,7.0,13.0,71,0.00,,,0.00,weatherlink.com 1.10,2013-01-10 19:20:00,
2013-01-10 13:35:00,38.4,30.0,30.12,ENE,71,6.0,17.0,71,0.00,,,0.00,weatherlink.com 1.10,2013-01-10 19:35:00,
2013-01-10 13:50:00,38.5,30.0,30.13,East,95,8.0,16.0,72,0.00,,,0.00,weatherlink.com 1.10,2013-01-10 19:50:00,
2013-01-10 14:05:00,38.7,31.0,30.12,ENE,66,9.0,14.0,73,0.00,,,0.00,weatherlink.com 1.10,2013-01-10 20:05:00,
2013-01-10 14:20:00,38.8,31.0,30.12,East,93,5.0,13.0,73,0.00,,,0.00,weatherlink.com 1.10,2013-01-10 20:20:00,
2013-01-10 14:35:00,39.0,31.0,30.11,ENE,64,5.0,16.0,73,0.00,,,0.00,weatherlink.com 1.10,2013-01-10 20:35:00,
2013-01-10 14:50:00,39.1,31.0,30.09,ENE,64,8.0,14.0,74,0.00,,,0.00,weatherlink.com 1.10,2013-01-10 20:50:00,
2013-01-10 15:05:00,38.6,32.0,30.08,ENE,78,11.0,18.0,77,0.00,,,0.00,weatherlink.com 1.10,2013-01-10 21:05:00,
2013-01-10 15:20:00,38.8,31.0,30.07,ENE,78,14.0,15.0,74,0.00,,,0.00,weatherlink.com 1.10,2013-01-10 21:20:00,
2013-01-10 15:35:00,39.3,31.0,30.07,East,85,20.0,21.0,73,0.00,,,0.00,weatherlink.com 1.10,2013-01-10 21:35:00,
2013-01-10 15:50:00,38.1,34.0,30.07,ESE,114,13.0,24.0,84,0.00,,,0.00,weatherlink.com 1.10,2013-01-10 21:50:00,
2013-01-10 16:05:00,36.9,34.0,30.06,ESE,109,9.0,15.0,89,0.01,,,0.01,weatherlink.com 1.10,2013-01-10 22:05:00,
2013-01-10 16:20:00,36.5,34.0,30.05,East,85,10.0,21.0,92,0.02,,,0.02,weatherlink.com 1.10,2013-01-10 22:20:00,
2013-01-10 16:35:00,36.3,34.0,30.05,East,95,8.0,15.0,92,0.03,,,0.03,weatherlink.com 1.10,2013-01-10 22:35:00,
2013-01-10 16:50:00,36.5,35.0,30.05,ESE,115,7.0,15.0,93,0.03,,,0.03,weatherlink.com 1.10,2013-01-10 22:50:00,
2013-01-10 17:05:00,36.6,35.0,30.03,East,85,8.0,15.0,93,0.02,,,0.03,weatherlink.com 1.10,2013-01-10 23:05:00,
2013-01-10 17:20:00,36.6,35.0,30.02,ESE,111,15.0,18.0,94,0.01,,,0.03,weatherlink.com 1.10,2013-01-10 23:20:00,
2013-01-10 17:35:00,36.7,35.0,30.02,ENE,75,10.0,20.0,94,0.00,,,0.03,weatherlink.com 1.10,2013-01-10 23:35:00,
2013-01-10 17:50:00,36.8,36.0,30.00,East,101,12.0,17.0,95,0.00,,,0.03,weatherlink.com 1.10,2013-01-10 23:50:00,
2013-01-10 18:05:00,36.7,35.0,30.00,East,87,9.0,15.0,95,0.00,,,0.03,weatherlink.com 1.10,2013-01-11 00:05:00,
2013-01-10 18:20:00,36.7,35.0,29.99,ESE,107,12.0,15.0,95,0.00,,,0.03,weatherlink.com 1.10,2013-01-11 00:20:00,
2013-01-10 18:35:00,36.6,35.0,29.99,East,99,9.0,17.0,95,0.00,,,0.03,weatherlink.com 1.10,2013-01-11 00:35:00,
2013-01-10 18:50:00,36.6,35.0,29.98,ENE,61,3.0,14.0,95,0.00,,,0.03,weatherlink.com 1.10,2013-01-11 00:50:00,
2013-01-10 19:05:00,36.6,35.0,29.98,ESE,122,7.0,14.0,95,0.01,,,0.04,weatherlink.com 1.10,2013-01-11 01:05:00,
2013-01-10 19:20:00,36.6,36.0,29.97,ESE,123,5.0,14.0,96,0.01,,,0.04,weatherlink.com 1.10,2013-01-11 01:20:00,
2013-01-10 19:36:00,36.6,36.0,29.95,ESE,104,7.0,10.0,96,0.02,,,0.05,weatherlink.com 1.10,2013-01-11 01:36:00,
2013-01-10 19:51:00,36.5,36.0,29.93,East,101,9.0,12.0,96,0.04,,,0.07,weatherlink.com 1.10,2013-01-11 01:51:00,
2013-01-10 20:06:00,36.3,35.0,29.92,East,92,9.0,13.0,96,0.04,,,0.08,weatherlink.com 1.10,2013-01-11 02:06:00,
2013-01-10 20:21:00,36.3,35.0,29.93,East,89,12.0,12.0,96,0.06,,,0.10,weatherlink.com 1.10,2013-01-11 02:21:00,
2013-01-10 20:36:00,36.4,35.0,29.93,ESE,123,7.0,10.0,96,0.12,,,0.17,weatherlink.com 1.10,2013-01-11 02:36:00,
2013-01-10 20:51:00,36.7,36.0,29.92,East,95,11.0,12.0,96,0.17,,,0.24,weatherlink.com 1.10,2013-01-11 02:51:00,
2013-01-10 21:06:00,36.9,36.0,29.92,ESE,110,7.0,10.0,96,0.20,,,0.28,weatherlink.com 1.10,2013-01-11 03:06:00,
2013-01-10 21:21:00,37.0,36.0,29.91,ESE,109,9.0,10.0,96,0.19,,,0.29,weatherlink.com 1.10,2013-01-11 03:21:00,
2013-01-10 21:36:00,37.1,36.0,29.90,ENE,61,5.0,13.0,96,0.13,,,0.30,weatherlink.com 1.10,2013-01-11 03:36:00,
2013-01-10 21:51:00,37.4,37.0,29.89,ESE,106,4.0,9.0,97,0.07,,,0.31,weatherlink.com 1.10,2013-01-11 03:51:00,
2013-01-10 22:06:00,37.5,37.0,29.88,ESE,120,7.0,9.0,97,0.03,,,0.31,weatherlink.com 1.10,2013-01-11 04:06:00,
2013-01-10 22:21:00,37.3,36.0,29.87,East,82,5.0,8.0,96,0.03,,,0.32,weatherlink.com 1.10,2013-01-11 04:21:00,
2013-01-10 22:36:00,37.4,37.0,29.85,ENE,78,8.0,8.0,97,0.02,,,0.32,weatherlink.com 1.10,2013-01-11 04:36:00,
2013-01-10 22:51:00,37.4,37.0,29.83,ENE,71,5.0,9.0,97,0.01,,,0.32,weatherlink.com 1.10,2013-01-11 04:51:00,
2013-01-10 23:06:00,37.6,37.0,29.82,ENE,68,11.0,11.0,97,0.01,,,0.32,weatherlink.com 1.10,2013-01-11 05:06:00,
2013-01-10 23:21:00,37.5,37.0,29.82,ENE,71,5.0,13.0,97,0.00,,,0.32,weatherlink.com 1.10,2013-01-11 05:21:00,
2013-01-10 23:36:00,37.4,37.0,29.82,East,85,4.0,11.0,97,0.00,,,0.32,weatherlink.com 1.10,2013-01-11 05:36:00,
2013-01-10 23:51:00,37.5,37.0,29.80,East,101,7.0,13.0,97,0.00,,,0.32,weatherlink.com 1.10,2013-01-11 05:51:00,